SPACEBEE-150 (52409 NORAD) Tracking and Keplerian Element Data

This shows tracking and keplerian element data for the satellite.

Feedback or suggestion? Click here.




ElementValue
Catalog52409
NameSPACEBEE-150
Epoch Orbit1202
Epoch Day192.74362866
Epoch Year2022
RAAN277.0924
Inclination97.45
Eccentricity0.0011432
Argument of Perigee95.6306
Mean Anonmoly264.623
Mean Motion15.13692732
Decay Rate6.104E-05
L11 52409U 22047R 22192.74362866 .00006104 00000+0 34215-3 0 9991
L22 52409 97.4500 277.0924 0011432 95.6306 264.6230 15.13692732 12025

Live tracking and technical data element details for SPACEBEE-150 (NORAD 52409). SPACEBEE-150 can be tracked NOW for your location showing map with azimuth and elevation plus other details from your city location.

Track the satellite on the map from your city or location and see movement details for azimuth, elevation, latitude, longitude, range, height, and movement on the map or in text.







IsCatalogInMostPopularTable: catalog: 52409, numindb: 8
Update: records affected: 1



GetName: 52409 SPACEBEE-150

Hit Count: updated at: Sun, 14 Aug 2022 00:51:43 GMT